Погода в Яе

Россия / Кемеровская область (Кузбасс)     56°12′20″N   86°27′04″E
темп.,
°C
ветер,
м/с
пор.,
м/с
влажн.,
%
обл.,
%
осадки,
мм/ч
давл.,
гПа
погр.,
м
20 января, чт
чт2001:00−17ююз369844 0.0 102785
04:00−19ююз359926 0.0 102864
07:00−19юз35998 0.0 102965
10:00−17юз3797100 0.0 1030124
13:00−12юз479295 0.0 1030221
16:00−11юз369283 0.0 1031208
19:00−12юз4894100 0.0 1033215
22:00−15юз369552 0.0 103492
21 января, пт
пт2101:00−18ююз359847 0.0 103566
04:00−21ююз2210097 0.0 103619
07:00−21ююз1110059 0.0 103610
10:00−22ююв1110049 0.0 10369
13:00−14в119330 0.0 103580
16:00−13всв22965 0.0 103325
19:00−19всв2210057 0.0 103423
22:00−19всв2310083 0.0 103434
22 января, сб
сб2201:00−19всв259936 0.0 103452
04:00−19всв359941 0.0 103359
07:00−20всв359926 0.0 103357
10:00−20всв249926 0.0 103452
13:00−12в249160 0.0 1033134
16:00−12св229531 0.0 103316
19:00−18в229951 0.0 10369
22:00−20вюв1110067 0.0 10379
23 января, вс
вс2301:00−21ю1110069 0.0 10379
04:00−23ююз1110064 0.0 10389
07:00−24юв1110051 0.0 10389
10:00−24в0010013 0.0 10399
13:00−14св11905 0.0 103867
16:00−13ссв11945 0.0 103811
19:00−19в111008 0.0 10399
22:00−21в1110020 0.0 10399
24 января, пн
пн2401:00−22в1110051 0.0 10399
04:00−23всв1110062 0.0 10399
07:00−23в1110062 0.0 10399
10:00−23всв2210064 0.0 103911
13:00−13св239231 0.0 1037122
16:00−13ссв23957 0.0 103650
19:00−20св2210067 0.0 103712
22:00−21св2210084 0.0 103614